This is the latest recevied weather packets stored in our database for station/object VK5KX. If no packets are shown the sender has not sent any weather packets the latest 10 day(s).
| Time | Temp. | Humidity | Pressure | Rain* | Wind** | Luminosity | Snow |
|---|---|---|---|---|---|---|---|
| 1778094006 | 12.22° C | 71% | 1027.7 hPa | 0 mm | - | - | - |
| 1778093106 | 12.22° C | 70% | 1027.5 hPa | 0 mm | - | - | - |
| 1778092204 | 12.22° C | 70% | 1027.4 hPa | 0 mm | - | - | - |
| 1778091304 | 12.22° C | 69% | 1027.3 hPa | 0 mm | - | - | - |
| 1778090404 | 12.22° C | 69% | 1027.3 hPa | 0 mm | - | - | - |
| 1778089561 | 11.67° C | 72% | 1027.3 hPa | 0 mm | - | - | - |
| 1778088671 | 11.67° C | 73% | 1027.4 hPa | 0 mm | - | - | - |
| 1778087767 | 11.67° C | 72% | 1027.3 hPa | 0 mm | - | - | - |
| 1778086862 | 11.67° C | 70% | 1027.4 hPa | 0 mm | - | - | - |
| 1778085971 | 12.22° C | 68% | 1027.5 hPa | 0 mm | - | - | - |
| 1778085050 | 12.78° C | 66% | 1027.6 hPa | 0 mm | - | - | - |
| 1778084148 | 12.78° C | 64% | 1027.4 hPa | 0 mm | - | - | - |
| 1778083250 | 13.33° C | 63% | 1027.3 hPa | 0 mm | - | - | - |
| 1778082350 | 13.33° C | 61% | 1027.3 hPa | 0 mm | - | - | - |
| 1778081441 | 13.33° C | 60% | 1027.2 hPa | 0 mm | - | - | - |
| 1778080541 | 13.33° C | 60% | 1027.2 hPa | 0 mm | - | - | - |
| 1778079640 | 13.33° C | 60% | 1027.1 hPa | 0 mm | - | - | - |
| 1778078738 | 13.33° C | 62% | 1027.1 hPa | 0 mm | - | - | - |
| 1778077837 | 13.33° C | 64% | 1027.1 hPa | 0 mm | - | - | - |
| 1778076933 | 13.33° C | 66% | 1026.9 hPa | 0 mm | - | - | - |
| 1778076031 | 13.33° C | 66% | 1026.9 hPa | 0 mm | - | - | - |
| 1778075130 | 13.33° C | 68% | 1026.8 hPa | 0 mm | - | - | - |
| 1778074228 | 13.33° C | 69% | 1026.7 hPa | 0 mm | - | - | - |
| 1778073333 | 13.89° C | 69% | 1026.6 hPa | 0 mm | - | - | - |
| 1778072426 | 13.89° C | 69% | 1026.4 hPa | 0 mm | - | - | - |
* Rain latest hour (hover to see other rain measurements)
** Current wind speed in m/s (hover to see current wind gust speed)